Clearfield, PA

4:58 AM EDT on May 28, 2017 (GMT -0400)
Clearfield-Lawrence

Weather History for KFIG - August, 2014

Change the Weather History Date:

Friday, August 15, 2014

  Actual Average (KDUJ) Record (KDUJ)
Temperature  
Mean Temperature 56 °F -  
Max Temperature 66 °F 77 °F 90 °F (1965)
Min Temperature 46 °F 58 °F 44 °F (1962)
Degree Days  
Heating Degree Days 9    
Growing Degree Days 6 (Base 50)    
Moisture  
Dew Point 47 °F    
Average Humidity 71    
Maximum Humidity 97    
Minimum Humidity 44    
Precipitation  
Precipitation 0.00 in - - ()
Sea Level Pressure  
Sea Level Pressure 30.00 in    
Wind  
Wind Speed 6 mph (WSW)    
Max Wind Speed 13 mph    
Max Gust Speed 22 mph    
Visibility 10 miles    
Events      
Averages and records for this station are not official NWS values.
T = Trace of Precipitation, MM = Missing Value Source: NWS Daily Summary

Daily Weather History Graph

Daily Weather History Graph

Search for Another Location

Airport or City:

Trip Planner

Search our weather history database for the weather conditions in past years. The results will help you decide how hot, cold, wet, or windy it might be!

Date:

Astronomy

Aug. 15, 2014 Rise Set
Actual Time 6:23 AM EDT 8:12 PM EDT
Civil Twilight 5:53 AM EDT 8:41 PM EDT
Nautical Twilight 5:17 AM EDT 9:17 PM EDT
Astronomical Twilight 4:39 AM EDT 9:55 PM EDT
Moon 11:09 PM EDT (8/15) 12:07 PM EDT (8/15)
Length of Visible Light 14h 47m
Length of Day
13h 48m
Waning Gibbous, 69% of the Moon is Illuminated
Aug 15
Waning Gibbous
Aug 17
Last Quarter
Aug 25
New
Sep 2
First Quarter
Sep 8
Full

Hourly Weather History & Observations

Time (EDT) Temp. Dew Point Humidity Pressure Visibility Wind Dir Wind Speed Gust Speed Precip Events Conditions
12:54 AM 52.0 °F 46.0 °F 80% 29.98 in 10.0 mi SW 4.6 mph - N/A   Clear
1:54 AM 50.0 °F 46.0 °F 86% 29.97 in 10.0 mi SW 4.6 mph - N/A   Clear
2:54 AM 51.1 °F 46.0 °F 83% 29.98 in 10.0 mi SW 6.9 mph - N/A   Overcast
3:54 AM 48.9 °F 46.0 °F 90% 29.97 in 10.0 mi SSW 6.9 mph - N/A   Partly Cloudy
4:54 AM 48.0 °F 46.0 °F 93% 29.98 in 10.0 mi SW 4.6 mph - N/A   Clear
5:54 AM 46.9 °F 46.0 °F 97% 29.99 in 10.0 mi SSW 4.6 mph - N/A   Clear
6:54 AM 46.9 °F 46.0 °F 97% 30.01 in 10.0 mi SW 6.9 mph - N/A   Partly Cloudy
7:54 AM 50.0 °F 46.9 °F 89% 30.02 in 10.0 mi SSW 5.8 mph - N/A   Clear
8:54 AM 55.0 °F 48.0 °F 77% 30.02 in 10.0 mi SSW 5.8 mph - N/A   Clear
9:54 AM 60.1 °F 48.9 °F 67% 30.01 in 10.0 mi Variable 4.6 mph - N/A   Clear
10:54 AM 64.0 °F 46.0 °F 52% 30.02 in 10.0 mi West 12.7 mph 19.6 mph N/A   Clear
11:54 AM 66.9 °F 44.1 °F 44% 30.01 in 10.0 mi WNW 9.2 mph 21.9 mph N/A   Scattered Clouds
12:54 PM 66.9 °F 44.1 °F 44% 30.01 in 10.0 mi West 11.5 mph - N/A   Scattered Clouds
1:54 PM 66.0 °F 46.0 °F 48% 30.01 in 10.0 mi West 6.9 mph 17.3 mph N/A   Mostly Cloudy
2:54 PM 66.9 °F 45.0 °F 45% 30.00 in 10.0 mi WNW 11.5 mph - N/A   Mostly Cloudy
3:54 PM 66.0 °F 46.9 °F 50% 30.00 in 10.0 mi NW 6.9 mph - N/A   Overcast
4:54 PM 64.9 °F 48.0 °F 54% 30.01 in 10.0 mi WNW 9.2 mph - N/A   Overcast
5:54 PM 64.9 °F 48.0 °F 54% 30.00 in 10.0 mi SW 9.2 mph - N/A   Partly Cloudy
6:54 PM 64.0 °F 48.9 °F 58% 29.99 in 10.0 mi WSW 8.1 mph - N/A   Clear
7:54 PM 61.0 °F 50.0 °F 67% 30.00 in 10.0 mi WSW 5.8 mph - N/A   Clear
8:54 PM 59.0 °F 48.9 °F 69% 30.01 in 10.0 mi West 5.8 mph - N/A   Clear
9:54 PM 55.0 °F 51.1 °F 86% 30.03 in 10.0 mi Calm Calm - N/A   Clear
10:54 PM 52.0 °F 48.9 °F 89% 30.04 in 10.0 mi Calm Calm - N/A   Clear
11:54 PM 52.0 °F 48.9 °F 89% 30.03 in 10.0 mi NNW 3.5 mph - N/A   Clear